Pope Field Airport, NC

5:41 PM EDT on April 26, 2018 (GMT -0400)
Pope Field Airport

Weather History for KPOB - January, 2014

Change the Weather History Date:

Monday, January 6, 2014

  Actual Average Record
Temperature  
Mean Temperature 42 °F -  
Max Temperature 61 °F 54 °F 73 °F (1998)
Min Temperature 20 °F 34 °F 5 °F (2018)
Degree Days  
Heating Degree Days 24    
Moisture  
Dew Point 45 °F    
Average Humidity 79    
Maximum Humidity 100    
Minimum Humidity 29    
Precipitation  
Precipitation 0.05 in - - ()
Sea Level Pressure  
Sea Level Pressure 29.78 in    
Wind  
Wind Speed 13 mph (WSW)    
Max Wind Speed 23 mph    
Max Gust Speed 32 mph    
Visibility 10 miles    
Events Rain    
Averages and records for this station are not official NWS values.
T = Trace of Precipitation, MM = Missing Value Source: NWS Daily Summary

Daily Weather History Graph

Daily Weather History Graph

Search for Another Location

Airport or City:

Astronomy

Jan. 06, 2014 Rise Set
Actual Time 7:25 AM EST 5:19 PM EST
Civil Twilight 6:57 AM EST 5:47 PM EST
Nautical Twilight 6:25 AM EST 6:18 PM EST
Astronomical Twilight 5:54 AM EST 6:49 PM EST
Moon 10:53 AM EST (1/6) 11:35 PM EST (1/6)
Length of Visible Light 10h 49m
Length of Day
9h 54m
Waxing Crescent, 34% of the Moon is Illuminated
Jan 6
Waxing Crescent
Jan 7
First Quarter
Jan 15
Full
Jan 24
Last Quarter
Jan 30
New

Hourly Weather History & Observations

Time (EST) Temp. Windchill Dew Point Humidity Pressure Visibility Wind Dir Wind Speed Gust Speed Precip Events Conditions
12:08 AM 55.4 °F - 53.6 °F 94% 29.79 in 9.0 mi South 10.4 mph 16.1 mph N/A Rain Light Rain
12:18 AM 55.4 °F - 53.6 °F 94% 29.77 in 9.0 mi South 15.0 mph - N/A Rain Light Rain
12:25 AM 55.4 °F - 53.6 °F 94% 29.78 in 10.0 mi South 10.4 mph - N/A   Overcast
12:35 AM 55.4 °F - 53.6 °F 94% 29.76 in 10.0 mi South 9.2 mph - N/A   Mostly Cloudy
12:40 AM 55.4 °F - 55.4 °F 100% 29.76 in 10.0 mi South 9.2 mph - N/A   Overcast
12:58 AM 55.9 °F - 55.0 °F 97% 29.76 in 10.0 mi SSW 8.1 mph - 0.02 in   Overcast
1:03 AM 55.4 °F - 55.4 °F 100% 29.75 in 9.0 mi SSW 11.5 mph - N/A   Overcast
1:13 AM 55.4 °F - 55.4 °F 100% 29.76 in 7.0 mi SSW 9.2 mph - N/A   Overcast
1:18 AM 55.4 °F - 55.4 °F 100% 29.75 in 7.0 mi SSW 9.2 mph - N/A   Overcast
1:33 AM 55.4 °F - 55.4 °F 100% 29.75 in 10.0 mi SSW 9.2 mph - N/A   Overcast
1:58 AM 56.5 °F - 55.6 °F 97% 29.74 in 10.0 mi South 11.5 mph - N/A   Overcast
2:28 AM 57.2 °F - 57.2 °F 100% 29.72 in 10.0 mi SSW 10.4 mph - N/A   Overcast
2:48 AM 59.0 °F - 57.2 °F 94% 29.71 in 10.0 mi SSW 10.4 mph - N/A   Overcast
2:53 AM 59.0 °F - 57.2 °F 94% 29.71 in 10.0 mi SSW 11.5 mph - N/A   Overcast
2:58 AM 58.3 °F - 56.8 °F 95% 29.72 in 10.0 mi SSW 11.5 mph - N/A   Overcast
3:13 AM 59.0 °F - 57.2 °F 94% 29.70 in 10.0 mi SSW 11.5 mph 20.7 mph N/A   Overcast
3:18 AM 59.0 °F - 57.2 °F 94% 29.70 in 10.0 mi SSW 16.1 mph 20.7 mph N/A   Overcast
3:23 AM 59.0 °F - 57.2 °F 94% 29.70 in 10.0 mi SSW 13.8 mph 20.7 mph N/A   Overcast
3:47 AM 60.8 °F - 57.2 °F 88% 29.70 in 10.0 mi SSW 16.1 mph 23.0 mph N/A Rain Light Rain
3:58 AM 60.8 °F - 59.0 °F 94% 29.70 in 10.0 mi SW 15.0 mph - N/A   Light Drizzle
4:02 AM 60.8 °F - 59.0 °F 94% 29.69 in 10.0 mi SSW 18.4 mph 25.3 mph N/A   Overcast
4:58 AM 61.7 °F - 58.6 °F 90% 29.69 in 10.0 mi SW 23.0 mph 28.8 mph 0.00 in   Overcast
5:53 AM 60.8 °F - 57.2 °F 88% 29.68 in 10.0 mi SW 17.3 mph 23.0 mph N/A   Overcast
5:58 AM 61.2 °F - 57.6 °F 88% 29.68 in 10.0 mi SW 18.4 mph 23.0 mph N/A   Overcast
6:58 AM 61.0 °F - 56.8 °F 86% 29.68 in 10.0 mi SW 17.3 mph 26.5 mph N/A   Overcast
7:58 AM 60.8 °F - 57.2 °F 88% 29.69 in 10.0 mi WSW 16.1 mph 21.9 mph N/A   Overcast
8:08 AM 60.8 °F - 57.2 °F 88% 29.67 in 10.0 mi WSW 18.4 mph - N/A   Overcast
8:13 AM 60.8 °F - 57.2 °F 88% 29.68 in 10.0 mi WSW 17.3 mph - N/A   Overcast
8:20 AM 60.8 °F - 57.2 °F 88% 29.68 in 10.0 mi WSW 15.0 mph - N/A   Light Drizzle
8:24 AM 60.8 °F - 57.2 °F 88% 29.68 in 7.0 mi WSW 16.1 mph - N/A Rain Light Rain
8:29 AM 60.8 °F - 57.2 °F 88% 29.69 in 5.0 mi West 23.0 mph 28.8 mph N/A Rain Light Rain
8:49 AM 53.6 °F - 50.0 °F 88% 29.73 in 10.0 mi West 15.0 mph 27.6 mph N/A Rain Light Rain
8:58 AM 53.8 °F - 49.8 °F 86% 29.74 in 10.0 mi West 18.4 mph 32.2 mph 0.02 in   Light Drizzle
8:59 AM 53.6 °F - 48.2 °F 82% 29.73 in 10.0 mi West 18.4 mph 32.2 mph N/A   Overcast
9:14 AM 53.6 °F - 48.2 °F 82% 29.74 in 10.0 mi West 13.8 mph 23.0 mph N/A   Overcast
9:18 AM 53.6 °F - 46.4 °F 77% 29.75 in 10.0 mi West 18.4 mph 21.9 mph N/A   Light Drizzle
9:29 AM 51.8 °F - 46.4 °F 82% 29.74 in 10.0 mi West 11.5 mph 26.5 mph N/A   Overcast
9:38 AM 51.8 °F - 46.4 °F 82% 29.75 in 10.0 mi West 17.3 mph 20.7 mph N/A   Overcast
9:39 AM 51.8 °F - 46.4 °F 82% 29.75 in 9.0 mi West 17.3 mph 20.7 mph N/A Rain Rain
9:54 AM 51.8 °F - 48.2 °F 88% 29.75 in 10.0 mi West 11.5 mph - N/A Rain Light Rain
9:58 AM 51.1 °F - 47.1 °F 86% 29.77 in 10.0 mi West 10.4 mph - 0.01 in Rain Light Rain
10:08 AM 50.0 °F - 48.2 °F 94% 29.75 in 10.0 mi West 15.0 mph - N/A Rain Light Rain
10:26 AM 50.0 °F - 46.4 °F 87% 29.77 in 10.0 mi West 13.8 mph - N/A   Overcast
10:48 AM 50.0 °F - 46.4 °F 87% 29.77 in 10.0 mi NW 11.5 mph - N/A Rain Light Rain
10:58 AM 48.6 °F - 41.5 °F 77% 29.78 in 10.0 mi NW 10.4 mph - 0.00 in Rain Light Rain
11:01 AM 48.2 °F - 41.0 °F 76% 29.77 in 10.0 mi NW 11.5 mph - N/A   Overcast
11:31 AM 48.2 °F - 41.0 °F 76% 29.77 in 10.0 mi NW 11.5 mph - N/A   Overcast
11:58 AM 48.7 °F - 39.9 °F 72% 29.78 in 10.0 mi NW 15.0 mph 19.6 mph 0.00 in   Overcast
12:28 PM 48.2 °F - 35.6 °F 62% 29.77 in 10.0 mi NW 11.5 mph 23.0 mph N/A   Overcast
12:58 PM 47.5 °F - 33.1 °F 57% 29.79 in 10.0 mi NW 15.0 mph 24.2 mph N/A   Overcast
1:58 PM 48.9 °F - 31.6 °F 51% 29.80 in 10.0 mi NW 12.7 mph - N/A   Overcast
2:58 PM 48.6 °F - 24.1 °F 38% 29.83 in 10.0 mi WNW 23.0 mph 29.9 mph N/A   Partly Cloudy
3:58 PM 45.7 °F 40.2 °F 21.4 °F 38% 29.87 in 10.0 mi WNW 11.5 mph 19.6 mph N/A   Clear
4:58 PM 42.6 °F 37.2 °F 21.7 °F 44% 29.90 in 10.0 mi WNW 9.2 mph - N/A   Partly Cloudy
5:58 PM 39.4 °F 33.8 °F 18.0 °F 42% 29.93 in 10.0 mi NW 8.1 mph - N/A   Clear
6:58 PM 36.3 °F 28.4 °F 13.6 °F 39% 29.99 in 10.0 mi NNW 11.5 mph 23.0 mph N/A   Clear
7:58 PM 32.4 °F 23.0 °F 9.5 °F 39% 30.05 in 10.0 mi NW 12.7 mph 23.0 mph N/A   Clear
8:58 PM 28.9 °F 18.2 °F 3.7 °F 34% 30.12 in 10.0 mi NW 13.8 mph 24.2 mph N/A   Clear
9:58 PM 26.1 °F 12.7 °F -2.6 °F 29% 30.17 in 10.0 mi NW 18.4 mph 27.6 mph N/A   Clear
10:58 PM 22.3 °F 11.5 °F -3.5 °F 32% 30.21 in 10.0 mi NW 10.4 mph 21.9 mph N/A   Clear
11:58 PM 20.1 °F 7.5 °F -3.1 °F 36% 30.23 in 10.0 mi NW 12.7 mph 19.6 mph N/A   Clear